N805AB KVNY-KLAX

Flight info

Callsign N805AB
Flight time 0h 8m
Altitude VFR
Route VFR NORTHEAST
Aircraft P180/L-DOV/C

Departure

Time 2026-05-04 01:14
Airport Van Nuys Airport (KVNY)

Arrival

Time 2026-05-04 01:22
Airport Los Angeles International Airport (KLAX)
Time Latitude Longitude Altitude Speed Heading
2026-05-04 01:14 34.10165 -118.32617 4934 ft 190 kts 88°
2026-05-04 01:14 34.10218 -118.31029 5020 ft 187 kts 89°
2026-05-04 01:14 34.10248 -118.29456 5064 ft 189 kts 90°
2026-05-04 01:14 34.10280 -118.27853 5046 ft 192 kts 92°
2026-05-04 01:15 34.09838 -118.26345 4889 ft 196 kts 126°
2026-05-04 01:15 34.08946 -118.25100 4808 ft 194 kts 132°
2026-05-04 01:15 34.08056 -118.23873 4703 ft 196 kts 131°
2026-05-04 01:15 34.07159 -118.22625 4578 ft 197 kts 131°
2026-05-04 01:16 34.06264 -118.21380 4511 ft 196 kts 131°
2026-05-04 01:16 34.05648 -118.19913 4173 ft 206 kts 108°
2026-05-04 01:16 34.05126 -118.18319 3630 ft 205 kts 126°
2026-05-04 01:16 34.04027 -118.17248 3085 ft 203 kts 157°
2026-05-04 01:17 34.02687 -118.16837 2721 ft 194 kts 175°
2026-05-04 01:17 34.01406 -118.17052 2695 ft 185 kts 201°
2026-05-04 01:17 34.00322 -118.17867 2563 ft 188 kts 220°
2026-05-04 01:17 33.99371 -118.18961 2377 ft 190 kts 225°
2026-05-04 01:18 33.98433 -118.20080 2224 ft 189 kts 226°
2026-05-04 01:18 33.97524 -118.21189 2202 ft 184 kts 226°
2026-05-04 01:18 33.96644 -118.22280 2247 ft 179 kts 225°
2026-05-04 01:18 33.95780 -118.23351 2289 ft 176 kts 227°
2026-05-04 01:19 33.95065 -118.24479 2284 ft 168 kts 243°
2026-05-04 01:19 33.94773 -118.25836 2187 ft 170 kts 263°
2026-05-04 01:19 33.94745 -118.27263 2053 ft 168 kts 267°
2026-05-04 01:19 33.94712 -118.28569 1953 ft 151 kts 265°
2026-05-04 01:20 33.94607 -118.29802 1758 ft 141 kts 262°
2026-05-04 01:20 33.94492 -118.30879 1519 ft 120 kts 260°
2026-05-04 01:20 33.94370 -118.31882 1407 ft 127 kts 261°
2026-05-04 01:20 33.94252 -118.32990 1349 ft 139 kts 263°
2026-05-04 01:21 33.94149 -118.34156 1183 ft 131 kts 263°
2026-05-04 01:21 33.94050 -118.35155 898 ft 115 kts 262°
2026-05-04 01:21 33.93962 -118.36073 645 ft 104 kts 264°
2026-05-04 01:21 33.93875 -118.36885 478 ft 93 kts 264°
2026-05-04 01:22 33.93805 -118.37638 305 ft 87 kts 264°
2026-05-04 01:22 33.93732 -118.38348 164 ft 83 kts 262°
2026-05-04 01:22 33.93665 -118.38992 119 ft 71 kts 263°
2026-05-04 01:22 33.93613 -118.39480 120 ft 44 kts 263°
2026-05-04 01:23 33.93576 -118.39828 120 ft 41 kts 263°
2026-05-04 01:23 33.93510 -118.40127 120 ft 26 kts 243°
2026-05-04 01:23 33.93450 -118.40212 120 ft 10 kts 207°
2026-05-04 01:23 33.93369 -118.40240 117 ft 14 kts 192°
2026-05-04 01:24 33.93327 -118.40239 120 ft 1 kts 175°